SCP
0 0 0 0 0 0 0 0 0 0 0 0 0 0 0 0 0 0 0 0 0 0 0 0 0 0 0 0 0 0 0 0 0 0 0 0 0 0 0 0 0 0 0
0 0 0 0 0 0 0 0 0 0 0 0 0 0 0 0 0 0 0 0 0 0 0 0 0 0 0 0 0 0 0 0 0 0 0 0 0 0 0 0 0 0 0
1 1 0 0 0 0 0 0 0 0 0 0 0 0 0 0 0 0 0 0 0 0 0 0 0 0 0 0 0 0 0 0 0 0 0 0 0 0 0 0 0 0 0
1 1 1 1 0 0 0 0 0 0 0 0 0 0 0 0 0 0 0 0 0 0 0 0 0 0 0 0 0 0 0 0 0 0 0 0 0 0 0 0 0 0 0
1 1 1 1 1 1 0 0 0 0 0 0 0 0 0 0 0 0 0 0 0 0 0 0 0 0 0 0 0 0 0 0 0 0 0 0 0 0 0 0 0 0 0
1 1 1 1 1 1 1 0 0 0 0 0 0 0 0 0 0 0 0 0 0 0 0 0 0 0 0 0 0 0 0 0 0 0 0 0 0 0 0 0 0 0 0
2 2 2 1 1 1 1 1 1 0 0 0 0 0 0 0 0 0 0 0 0 0 0 0 0 0 0 0 0 0 0 0 0 0 0 0 0 0 0 0 0 0 0
2 2 2 2 1 1 1 1 1 1 1 1 1 0 0 0 0 0 0 0 0 0 0 0 0 0 0 0 0 0 0 0 0 0 0 0 0 0 0 0 0 0 0
1 2 2 2 2 2 1 1 1 1 1 1 1 0 0 0 0 0 0 0 0 0 0 0 0 0 0 0 0 0 0 0 0 0 0 0 0 0 0 0 0 0 0
1 1 1 2 2 2 2 2 1 1 1 1 1 0 0 0 0 0 0 0 0 0 0 0 0 0 0 0 0 0 0 0 0 0 0 0 0 0 0 0 0 0 0
1 1 1 2 2 2 2 2 2 2 1 1 1 1 0 0 0 0 0 0 0 0 0 0 0 0 0 0 0 0 0 0 0 0 0 0 0 0 0 0 0 0 0
1 1 1 2 2 2 2 2 2 2 2 2 1 1 1 1 0 0 0 0 0 0 0 0 0 0 0 0 0 0 0 0 0 0 0 0 0 0 0 0 0 0 0
1 1 2 2 2 2 2 2 2 2 2 2 2 2 2 1 1 0 0 0 0 0 0 0 0 0 0 0 0 0 0 0 0 0 0 0 0 0 0 0 0 0 0
1 1 1 2 1 1 2 2 2 2 2 2 2 2 2 2 1 0 0 0 0 0 0 0 0 0 0 0 0 0 0 0 0 0 0 0 0 0 0 0 0 0 0
0 1 1 1 1 1 1 2 2 2 2 2 1 2 2 1 0 0 0 0 0 0 0 0 0 0 0 0 0 0 0 0 0 0 0 0 0 0 0 0 0 0 0
0 0 0 1 1 1 1 1 1 1 1 1 1 1 1 0 0 0 0 0 0 0 0 0 0 0 0 0 0 0 0 0 0 0 0 0 0 0 0 0 0 0 0
0 0 0 0 1 1 1 0 0 1 1 0 0 0 0 0 0 0 0 0 0 0 0 0 0 0 0 0 0 0 0 0 0 0 0 0 0 0 0 0 0 0 0
0 0 0 0 0 0 0 0 0 0 0 0 0 0 0 0 0 0 0 0 0 0 0 0 0 0 0 0 0 0 0 0 0 0 0 0 0 0 0 0 0 0 0
0 0 0 0 0 0 0 0 0 0 0 0 0 0 0 0 0 0 0 0 0 0 0 0 0 0 0 0 0 0 0 0 0 0 0 0 0 0 0 0 0 0 0
0 0 0 0 0 0 0 0 0 0 0 0 0 0 0 0 0 0 0 0 0 0 0 0 0 0 0 0 0 0 0 0 0 0 0 0 0 0 0 0 0 0 0
0 0 0 0 0 0 0 0 0 0 0 0 0 0 0 0 0 0 0 0 0 0 0 0 0 0 0 0 0 0 0 0 0 0 0 0 0 0 0 0 0 0 0
0 0 0 0 0 0 0 0 0 0 0 0 0 0 0 0 0 0 0 0 0 0 0 0 0 0 0 0 0 0 0 0 0 0 0 0 0 0 0 0 0 0 0
0 0 0 0 0 0 0 0 0 0 0 0 0 0 0 0 0 0 0 0 0 0 0 0 0 0 0 0 0 0 0 0 0 0 0 0 0 0 0 0 0 0 0
0 0 0 0 0 0 0 0 0 0 0 0 0 0 0 0 0 0 0 0 0 0 0 0 0 0 0 0 0 0 0 0 0 0 0 0 0 0 0 0 0 0 0
0 0 0 0 0 0 0 0 0 0 0 0 0 0 0 0 0 0 0 0 0 0 0 0 0 0 0 0 0 0 0 0 0 0 0 0 0 0 0 0 0 0 0
0 0 0 0 0 0 0 0 0 0 0 0 0 0 0 0 0 0 0 0 0 0 0 0 0 0 0 0 0 0 0 0 0 0 0 0 0 0 0 0 0 0 0
Wind_Speed
4 4 4 5 6 5 5 5 6 6 5 5 5 4 5 4 3 5 5 10 11 11 11 10 9 9 8 8 8 7 7 7 7 7 7 7 8 8 8 8 9 9 10
4 4 4 5 5 5 5 5 6 5 4 4 4 4 4 4 4 6 6 7 11 11 12 11 10 9 9 8 8 7 6 6 6 5 5 6 6 6 6 7 7 8 8
5 5 4 4 5 5 5 4 5 4 4 4 4 4 3 3 4 6 7 6 6 10 12 13 12 11 10 9 8 8 7 5 5 4 3 4 4 4 5 5 6 7 8
7 5 5 4 5 4 4 4 4 3 3 4 3 3 3 3 3 4 6 7 6 6 8 13 13 12 11 10 9 8 7 6 4 3 2 2 2 3 4 5 6 6 7
8 6 5 5 5 4 4 4 4 4 4 4 4 4 4 4 4 3 5 7 8 8 6 10 12 12 12 12 10 9 8 6 4 3 1 0 2 3 4 5 6 7 8
7 7 5 6 6 5 5 5 5 5 4 4 4 4 4 4 4 4 5 5 6 9 8 8 7 8 12 13 12 10 8 7 5 3 2 2 3 4 5 6 7 8 9
7 7 6 6 7 6 7 7 5 6 5 4 3 2 2 3 4 5 5 5 6 8 8 9 7 6 6 13 13 11 9 7 6 4 3 3 4 5 6 8 9 10 10
6 5 7 6 6 6 7 8 7 5 5 5 4 3 3 3 5 6 5 6 6 6 7 9 9 8 7 5 8 12 10 9 7 5 4 4 5 6 7 9 10 11 12
7 7 7 7 6 7 7 8 8 9 7 6 5 6 5 7 4 4 7 6 6 5 6 6 8 9 9 7 6 10 11 9 8 6 5 5 6 7 9 10 12 13 13
8 9 8 8 7 6 7 8 9 7 7 6 5 5 5 4 4 3 2 3 4 4 5 5 6 6 7 6 9 12 12 10 9 7 6 6 8 9 11 12 13 13 14
6 7 8 8 8 7 8 8 8 9 8 8 6 4 5 4 2 4 3 3 2 2 2 3 3 4 5 5 5 9 12 10 9 7 7 8 9 11 13 14 14 14 15
3 4 5 6 7 7 8 8 9 9 9 9 8 6 5 5 5 5 4 3 3 1 1 1 2 2 3 4 6 11 11 9 8 7 8 9 11 12 14 15 15 16 16
3 3 3 3 4 5 6 7 8 9 9 9 9 7 7 6 3 4 4 3 3 1 0 1 1 2 2 3 3 9 8 8 8 8 10 11 13 13 14 15 16 17 17
3 4 3 3 3 3 3 4 4 6 5 7 7 6 4 4 3 3 4 5 3 2 1 2 0 1 2 3 5 8 4 8 9 10 11 13 13 14 15 16 16 17 18
4 5 5 4 3 3 2 2 2 2 2 2 2 3 2 1 2 2 2 3 5 5 6 4 2 2 2 2 5 3 3 7 10 11 13 14 15 15 16 16 17 18 18
6 6 6 5 5 4 4 3 2 2 2 2 3 3 4 3 3 3 2 2 1 3 3 3 2 2 3 4 7 4 4 9 11 12 14 15 16 16 17 17 17 18 19
7 7 6 6 6 6 5 5 4 5 5 6 6 6 6 6 4 4 3 3 2 2 3 2 2 2 3 4 3 3 3 4 5 12 15 16 16 16 17 18 18 18 19
8 8 8 8 9 8 8 7 7 7 7 7 7 7 7 6 6 5 4 4 4 3 3 3 2 2 3 4 4 4 4 4 4 11 15 16 16 17 17 18 18 18 18
9 9 9 9 9 9 9 9 9 9 9 9 8 7 6 7 7 5 5 4 3 3 3 3 2 1 1 2 3 3 4 4 5 8 12 14 15 16 16 17 18 18 19
9 9 9 9 10 10 10 9 10 10 10 10 9 8 7 7 6 5 4 4 3 3 3 2 1 1 1 2 1 2 3 2 3 5 8 11 13 15 16 17 18 19 19
10 9 9 9 9 8 9 9 9 10 10 10 9 8 8 9 8 6 4 3 2 2 1 1 1 0 1 1 1 1 2 2 4 4 3 4 5 5 8 14 17 18 19
9 9 9 9 9 8 14 15 11 8 8 7 7 6 6 7 8 8 7 5 3 2 1 0 0 1 2 1 1 0 1 2 3 2 3 6 5 6 6 6 14 19 19
8 8 8 8 9 11 15 15 14 7 7 6 5 4 4 5 6 4 4 4 3 3 2 0 1 2 2 1 1 1 2 3 5 4 5 8 5 7 6 9 17 19 20
6 6 7 7 7 10 13 13 12 7 6 5 5 4 4 3 3 3 3 3 2 2 2 1 1 2 2 2 2 3 4 4 5 4 4 6 5 5 7 6 15 19 19
6 5 5 6 6 7 11 11 9 3 3 3 3 3 4 4 6 6 4 3 3 3 4 5 6 7 10 10 8 3 2 3 5 4 2 3 3 4 5 6 8 14 15
4 4 4 4 5 4 8 10 9 3 3 2 2 2 3 4 7 7 3 3 3 3 3 5 6 7 6 7 9 3 3 3 3 4 2 2 3 4 6 4 3 4 7
Wind_Direction
176 179 181 177 186 186 187 186 202 203 200 197 198 197 183 195 178 141 148 155 158 161 161 159 156 151 144 134 125 115 106 98 90 83 75 68 60 53 49 44 39 33 28
187 187 191 187 192 190 183 189 202 200 191 187 195 202 201 193 183 150 153 161 165 168 171 171 169 166 160 151 143 134 123 112 100 88 77 68 59 49 41 36 30 24 19
196 192 196 195 194 195 191 191 206 200 189 181 190 200 204 206 188 159 158 160 165 174 179 181 179 177 173 167 160 151 142 130 118 102 85 69 54 38 27 19 14 9 4
200 198 199 205 197 193 192 193 200 196 189 180 185 199 198 195 202 184 166 165 166 173 186 188 186 185 183 179 174 167 158 150 140 125 99 64 35 12 1 354 351 348 345
203 200 202 205 201 199 197 196 195 189 189 189 195 198 197 190 203 205 183 171 170 171 174 189 186 186 187 187 185 179 173 168 164 167 169 319 333 334 332 330 329 327 327
209 206 204 207 203 201 203 200 197 195 191 186 195 200 201 196 196 203 202 183 173 172 172 175 175 185 187 190 191 188 184 182 184 195 220 259 291 307 312 314 316 316 317
215 210 209 208 207 208 207 203 198 201 203 174 159 210 256 227 212 207 202 194 185 178 171 173 174 173 186 194 193 191 190 192 197 208 231 258 281 296 304 307 308 309 309
237 223 217 214 211 212 211 207 205 199 198 179 161 153 223 256 252 223 205 204 196 182 182 179 178 175 175 172 187 189 191 196 202 215 232 254 275 290 299 303 304 305 306
230 232 229 224 219 214 217 213 208 205 209 202 185 173 183 213 219 228 217 207 199 190 189 181 180 175 172 167 172 187 188 195 206 220 237 257 276 289 294 297 300 301 302
219 222 226 227 227 223 221 218 214 211 205 209 216 222 214 179 173 206 253 221 200 194 189 186 178 171 165 158 169 176 183 192 207 222 241 263 278 287 293 296 298 300 302
227 222 222 223 226 228 228 226 221 217 213 212 204 205 231 244 208 168 206 221 213 201 170 170 164 158 153 147 154 170 181 197 212 226 248 271 284 293 297 298 299 301 301
263 245 237 230 229 227 228 230 229 226 223 220 214 201 193 201 209 200 192 182 198 210 68 72 121 136 138 138 161 172 184 203 220 240 264 279 288 294 298 300 301 300 298
301 284 264 254 249 240 234 231 231 233 228 224 222 218 211 212 190 192 195 163 155 135 42 29 57 102 125 115 148 170 191 209 231 252 271 282 291 297 299 298 297 297 296
314 321 307 294 287 280 267 250 244 242 237 231 227 219 211 207 188 179 173 156 157 175 209 221 21 132 127 129 169 179 201 223 242 259 273 284 291 294 293 293 294 294 295
344 352 351 350 349 345 335 306 276 270 261 250 227 197 177 143 133 135 135 160 170 185 205 189 179 173 147 137 183 174 197 238 253 266 276 281 285 287 288 290 291 292 291
8 7 9 12 16 19 19 21 15 20 61 52 58 84 86 85 87 87 104 103 138 167 169 153 159 156 171 180 198 196 217 248 264 274 279 281 283 284 286 288 289 289 289
22 23 24 28 31 31 32 45 52 57 70 70 70 80 80 82 84 75 75 82 74 95 134 118 121 141 169 181 198 211 227 243 262 274 279 281 283 285 287 288 288 287 286
33 34 38 43 42 40 40 48 57 63 71 76 78 84 86 86 82 77 76 75 72 58 103 124 123 144 181 190 200 223 242 250 250 273 279 283 285 286 287 286 285 284 284
42 43 46 49 49 49 50 53 61 63 66 68 70 76 80 86 82 78 77 78 73 67 75 110 117 144 174 202 211 237 250 258 264 275 284 289 290 290 288 287 287 286 285
49 49 51 53 54 56 57 59 65 68 68 65 64 66 68 74 81 80 78 79 81 78 79 90 102 134 195 218 200 238 270 269 277 287 289 289 290 292 293 293 292 291 288
56 55 56 56 57 60 64 68 67 71 72 69 65 64 67 73 76 75 81 75 72 71 73 87 110 172 245 249 243 240 267 297 294 278 281 288 295 288 288 289 291 289 286
60 62 60 61 60 65 74 77 79 73 74 72 70 65 68 62 60 61 65 62 54 54 53 43 295 258 269 273 281 319 313 321 303 304 325 295 284 278 273 264 281 288 289
64 66 65 64 64 67 71 73 74 74 71 67 62 55 53 58 54 35 25 25 10 350 332 262 260 273 283 274 297 303 279 268 264 273 293 285 269 272 270 281 292 296 297
66 67 68 69 68 65 66 66 69 69 70 66 59 51 45 39 40 24 9 1 334 316 300 287 239 267 278 264 238 246 254 270 271 267 258 275 279 273 283 280 291 292 294
71 67 67 68 71 62 59 57 53 56 68 65 64 58 44 24 10 10 10 349 335 323 319 315 296 291 288 286 277 264 273 289 294 290 251 257 286 300 287 279 284 292 296
84 81 73 70 73 64 54 49 43 44 42 32 28 48 51 22 358 357 3 347 329 323 339 331 316 307 300 291 290 252 210 235 273 292 286 301 297 327 308 285 274 284 293